CW8095 Weather Reports


time (UTC)temp
C
wind
direction
speed
KPH
gust
KPH
rain 1hr
cm
rain 24hr
cm
rain mn
cm
humidity
%
barometer
mb
20260503220048 30 169 6.4 17.7 0.00 0.00 0.00 25 1016.9
20260503215022 30 170 8.0 24.1 0.00 0.00 0.00 25 1016.9
20260503214017 30 179 8.0 17.7 0.00 0.00 0.00 25 1017.1
20260503213028 30 158 8.0 20.9 0.00 0.00 0.00 24 1017.2
20260503212023 30 156 6.4 17.7 0.00 0.00 0.00 25 1017.5
20260503211018 30 173 9.7 24.1 0.00 0.00 0.00 25 1017.5
20260503210049 30 155 8.0 17.7 0.00 0.00 0.00 25 1017.8
20260503205024 31 157 4.8 14.5 0.00 0.00 0.00 25 1017.9
20260503204019 31 162 8.0 20.9 0.00 0.00 0.00 25 1018.2
20260503203029 31 168 4.8 16.1 0.00 0.00 0.00 26 1018.2
20260503202024 30 141 3.2 9.7 0.00 0.00 0.00 27 1018.5
20260503201019 30 180 3.2 12.9 0.00 0.00 0.00 24 1018.6
20260503200029 30 172 6.4 16.1 0.00 0.00 0.00 25 1018.7
20260503195024 30 161 6.4 16.1 0.00 0.00 0.00 25 1019.0
20260503194019 30 171 6.4 14.5 0.00 0.00 0.00 26 1019.1
20260503193029 30 155 6.4 16.1 0.00 0.00 0.00 26 1019.2
20260503192025 30 167 6.4 17.7 0.00 0.00 0.00 28 1019.3
20260503191019 30 136 4.8 16.1 0.00 0.00 0.00 28 1019.7
20260503190029 30 93 3.2 16.1 0.00 0.00 0.00 27 1019.7
20260503185045 30 156 6.4 16.1 0.00 0.00 0.00 29 1019.8
20260503184020 29 169 6.4 16.1 0.00 0.00 0.00 29 1020.0
20260503183016 28 281 4.8 11.3 0.00 0.00 0.00 28 1020.0
20260503182026 28 167 4.8 9.7 0.00 0.00 0.00 30 1020.3
20260503181021 28 149 9.7 24.1 0.00 0.00 0.00 28 1020.5
20260503180037 28 290 3.2 6.4 0.00 0.00 0.00 31 1020.7
20260503175027 28 192 4.8 17.7 0.00 0.00 0.00 32 1020.9
20260503174022 28 148 4.8 12.9 0.00 0.00 0.00 34 1021.0
20260503173017 28 139 3.2 6.4 0.00 0.00 0.00 35 1021.1
20260503172047 27 168 4.8 20.9 0.00 0.00 0.00 35 1021.3
20260503171041 27 198 4.8 14.5 0.00 0.00 0.00 38 1021.6
20260503131027 17 167 3.2 11.3 0.00 0.00 0.00 65 1021.6
20260503081041 13 155 1.6 3.2 0.00 0.00 0.00 72 1020.3
20260503072108 14 158 1.6 4.8 0.00 0.00 0.00 70 1020.7
20260503071023 14 163 1.6 3.2 0.00 0.00 0.00 69 1020.6
20260503055016 16 163 3.2 9.7 0.00 0.00 0.00 64 1020.4
20260503054026 16 167 3.2 9.7 0.00 0.00 0.00 64 1020.5
20260503053019 16 175 3.2 9.7 0.00 0.00 0.00 63 1020.5
20260503052047 16 171 3.2 6.4 0.00 0.00 0.00 63 1020.3
20260503051036 16 172 4.8 12.9 0.00 0.00 0.00 62 1020.3
20260503050028 16 163 3.2 6.4 0.00 0.00 0.00 60 1020.2
20260503045024 16 156 3.2 11.3 0.00 0.00 0.00 59 1020.2
20260503044020 17 156 3.2 9.7 0.00 0.00 0.00 60 1020.2
20260503043030 17 161 3.2 9.7 0.00 0.00 0.00 60 1020.2
20260503042136 17 157 1.6 4.8 0.00 0.00 0.00 60 1020.3
20260503041030 17 154 3.2 6.4 0.00 0.00 0.00 57 1020.3
20260503040024 17 160 3.2 6.4 0.00 0.00 0.00 56 1020.3
20260503035202 18 170 3.2 4.8 0.00 0.00 0.00 54 1020.2
20260503034022 18 164 3.2 4.8 0.00 0.00 0.00 54 1020.3
20260503033020 18 164 1.6 6.4 0.00 0.00 0.00 53 1020.3
20260503032036 18 169 3.2 6.4 0.00 0.00 0.00 53 1020.1
20260503031027 18 168 1.6 4.8 0.00 0.00 0.00 52 1020.1
20260503030020 18 165 1.6 3.2 0.00 0.00 0.00 51 1020.0
20260503025030 19 162 1.6 4.8 0.00 0.00 0.00 49 1019.9
20260503024025 19 164 1.6 4.8 0.00 0.00 0.00 48 1019.8
20260503023021 19 167 1.6 4.8 0.00 0.00 0.00 46 1019.7
20260503022016 20 170 1.6 3.2 0.00 0.00 0.00 45 1019.6
20260503021026 20 170 0.0 1.6 0.00 0.00 0.00 44 1019.5
20260503020021 20 170 0.0 1.6 0.00 0.00 0.00 42 1019.4
20260503015016 21 175 0.0 3.2 0.00 0.00 0.00 41 1019.4
20260503014027 21 191 0.0 1.6 0.00 0.00 0.00 39 1019.3
20260503013042 22 194 0.0 3.2 0.00 0.00 0.00 37 1019.3
20260503012017 22 168 1.6 4.8 0.00 0.00 0.00 35 1019.2
20260503011027 22 155 1.6 4.8 0.00 0.00 0.00 34 1019.1
20260503010023 23 160 1.6 4.8 0.00 0.00 0.00 32 1019.1
20260503005038 24 144 0.0 3.2 0.00 0.00 0.00 31 1019.0
20260503004028 25 164 1.6 4.8 0.00 0.00 0.00 30 1019.0
20260503003024 25 159 3.2 6.4 0.00 0.00 0.00 29 1019.1
20260503002019 26 110 1.6 4.8 0.00 0.00 0.00 26 1019.0
20260503001050 27 79 1.6 4.8 0.00 0.00 0.00 24 1019.0
20260503000025 28 98 0.0 3.2 0.00 0.00 0.00 24 1019.1
20260502235020 28 230 1.6 4.8 0.00 0.00 0.00 24 1019.1
20260502234035 28 189 1.6 3.2 0.00 0.00 0.00 24 1019.0
20260502233025 28 305 1.6 4.8 0.00 0.00 0.00 23 1019.1
20260502232020 28 246 1.6 4.8 0.00 0.00 0.00 24 1019.2
20260502231015 28 193 1.6 4.8 0.00 0.00 0.00 23 1019.1
20260502230025 28 167 1.6 4.8 0.00 0.00 0.00 24 1019.2
20260502225100 29 127 3.2 9.7 0.00 0.00 0.00 23 1019.2
20260502224016 29 148 3.2 6.4 0.00 0.00 0.00 23 1019.2
20260502223026 29 125 4.8 9.7 0.00 0.00 0.00 23 1019.3
20260502222021 28 70 4.8 9.7 0.00 0.00 0.00 25 1019.4
20260502221016 28 133 0.0 3.2 0.00 0.00 0.00 25 1019.5